Regional Weather Roundup
Issued by NWS

Home | Current Version | Previous Version | Text Only | Print | Product List | Glossary On
Versions: 1 2 3 4 5 6 7 8 9 10 11 12 13 14 15 16 17 18 19 20 21 22 23 24 25 26 27 28 29 30 31 32 33 34 35 36 37 38 39 40 41 42 43 44 45 46 47 48 49 50
000
ASUS43 KMKX 031600
RWRWI

WISCONSIN REGIONAL WEATHER ROUNDUP
NATIONAL WEATHER SERVICE MILWAUKEE/SULLIVAN WI
1000 AM CST TUE MAR 03 2015

NOTE: "FAIR" INDICATES FEW OR NO CLOUDS BELOW 12,000 FEET WITH NO
SIGNIFICANT WEATHER AND/OR OBSTRUCTIONS TO VISIBILITY.

WIZ001-002-006>008-014>016-023>028-031700-
NORTHWEST WISCONSIN

CITY           SKY/WX    TMP DP  RH WIND       PRES   REMARKS
SUPERIOR ARPT  SNOW      21  19  93 SW6       29.67F VSB 1/2 WCI  14
ASHLAND        SNOW      21  19  92 S8        29.66F VSB 1/4 WCI  11
HAYWARD        HVY SNOW  20  17  88 S5        29.63F VSB 1/4 WCI  13
SIREN          SNOW      21  19  93 CALM      29.67F VSB 1/4
CUMBERLAND     LGT SNOW  21  18  86 S7        29.66F VSB 1   WCI  13
RICE LAKE      SNOW      21  18  90 SE5       29.69F VSB 1/2 WCI  14
CHETEK         SNOW      21  19  91 SE6       29.67F VSB 1/2 WCI  13
LADYSMITH      SNOW      22  19  88 S3        29.70F VSB 1/2
EAU CLAIRE     SNOW      22  19  89 CALM      29.69F VSB 1/2
MENOMONIE      SNOW      23  20  90 CALM      29.69F VSB 1/2
NEW RICHMOND   LGT SNOW  22  19  87 S5        29.67F WCI  15
OSCEOLA        SNOW      22  22 100 SE6       29.69F VSB 1/4 WCI  14
$$

WIZ003>005-009-010-017-018-031700-
NORTH CENTRAL WISCONSIN

CITY           SKY/WX    TMP DP  RH WIND       PRES   REMARKS
MANITOWISH WTR LGT SNOW  19  15  88 S6        29.63F VSB 3/4 WCI  10
ARBOR VITAE    SNOW      20  16  87 S5        29.65S VSB 1/2 WCI  13
WOODRUFF       SNOW      20  16  87 S5        29.65S VSB 1/2 WCI  13
RHINELANDER    SNOW      20  15  81 S6        29.65F VSB 1/2 WCI  12
EAGLE RIVER    LGT SNOW  19  15  82 S3        29.65F VSB 3/4
LAND O LAKES   LGT SNOW  20  14  76 S10       29.65F WCI   9
PHILLIPS       SNOW      19  16  90 S5        29.65F VSB 1/2 WCI  12
TOMAHAWK       SNOW      20  16  86 CALM      29.67F VSB 1/4
MEDFORD        LGT SNOW  19  17  89 S6        29.65F VSB 1   WCI  11
MERRILL        SNOW      21  18  90 CALM      29.68S VSB 1/2
$$

WIZ029-030-035-036-043>047-031700-
CENTRAL WISCONSIN

CITY           SKY/WX    TMP DP  RH WIND       PRES   REMARKS
WAUSAU         LGT SNOW  21  19  92 S8        29.65F FOG     WCI  11
MOSINEE        CLOUDY    21  21 100 S7        29.67F WCI  13
MARSHFIELD     LGT SNOW  22  19  89 S9        29.65F FOG     WCI  12
STEVENS POINT  MIX PCPN  21  19  93 S5        29.68F WCI  14
WAUPACA        LGT SNOW  26  22  85 S6        29.71F WCI  19
WAUTOMA        CLOUDY    25  23  93 CALM      29.69F FOG
WISC RAPIDS    FRZ RAIN  22  19  89 S7        29.68F FOG     WCI  13
CAMP DOUGLAS   NOT AVBL
$$

WIZ011>013-019>022-031-037>040-048>050-031700-
NORTHEAST WISCONSIN

CITY           SKY/WX    TMP DP  RH WIND       PRES   REMARKS
ANTIGO         LGT SNOW  19  17  90 S5        29.66F WCI  12
SHAWANO        MIX PCPN  27  23  86 S6        29.71F VSB 3/4 WCI  20
OCONTO         CLOUDY    26  26  99 S8        29.72F VSB 1/2 WCI  18
STURGEON BAY   CLOUDY    28  25  86 S15G21    29.72F WCI  17
GREEN BAY      LGT SNOW  26  24  92 S9        29.69F FOG     WCI  17
MANITOWOC      LGT SNOW  28  28 100 S21G28    29.73F VSB 3/4 WCI  15
APPLETON       LGT SNOW  25  23  93 S9        29.69F WCI  15
CLINTONVILLE   LGT SNOW  25  23  93 S7        29.70F VSB 3/4 WCI  17
OSHKOSH        SNOW      26  23  88 S9        29.68F VSB 1/2 WCI  17
$$

WIZ032>034-041-042-053>061-031700-
SOUTHWEST WISCONSIN

CITY           SKY/WX    TMP DP  RH WIND       PRES   REMARKS
LA CROSSE      CLOUDY    26  23  88 S6        29.69F FOG     WCI  19
SPARTA         MIX PCPN  24  22  93 S3        29.70F
VIROQUA        CLOUDY    24  24 100 S6        29.66F WCI  17
BOSCOBEL       CLOUDY    27  24  89 CALM      29.68F FOG
PRAIRIE DU CHI MIX PCPN  26  24  92 CALM      29.69F
PLATTEVILLE    CLOUDY    29  28  94 S13       29.68F WCI  19
$$

WIZ056-057-062-063-064-067-068-031700-
SOUTH CENTRAL WISCONSIN

CITY           SKY/WX    TMP DP  RH WIND       PRES   REMARKS
REEDSBURG      MIX PCPN  24  22  93 CALM      29.67F
BARABOO/DELLS  MIX PCPN  24  21  91 SE3       29.67F VSB 1
LONE ROCK      CLOUDY    25  23  92 E3        29.70F FOG
MINERAL POINT  LGT RAIN  30  28  93 S8        29.66F WCI  23
MADISON        FRZ DRZL  26  24  92 S9        29.67F FOG     WCI  17
MIDDLETON      CLOUDY    28  26  90 S7        29.69F WCI  21
WATERTOWN      LGT SNOW  25  24  95 SE8       29.68F VSB 1   WCI  16
MONROE         MIX PCPN  30  30 100 S18       29.66F WCI  18
JANESVILLE     NOT AVBL
$$

WIZ051-052-058>065-066-070>072-031700-
SOUTHEAST WISCONSIN

CITY           SKY/WX    TMP DP  RH WIND       PRES   REMARKS
MILWAUKEE      LGT SNOW  29  25  85 S14       29.69F VSB 1   WCI  18
WAUKESHA       LGT SNOW  25  23  93 SE12      29.68F WCI  14
MILWAUKEE/TIMM LGT SNOW  27  23  86 S8        29.72F WCI  18
RACINE         MIX PCPN  29  27  92 S16G26    29.70F FOG     WCI  17
BURLINGTON     CLOUDY    27  26  94 S7        29.69F FOG     WCI  19
KENOSHA        FRZ RAIN  29  27  92 S14       29.69F VSB 1   WCI  18
FOND DU LAC    SNOW      26  23  88 S9        29.68F VSB 1/2 WCI  17
SHEBOYGAN      SNOW      28  25  88 S16G25    29.70F VSB 1/2 WCI  16
WEST BEND      SNOW      27  23  86 SE8       29.69F VSB 1/2 WCI  18
JUNEAU         LGT SNOW  25  23  92 SE12      29.69F VSB 1   WCI  14
$$

LSZ147-162-031700-
LAKE SUPERIOR

STATION/POSITION TIME  TEMP    WIND        PRES    WAVE
                       AIR SEA DIR/SP/G            HT/PER
                 (UTC) (F)     (DEG/KT/KT) (MB)    (FT/S)
DEVILS ISLAND    1500   21     190/  8/ 11 1006.0F
PORT WING        1500   22     190/  7/ 12 1005.1
SAXON HARBOR     1540   23     190/  5/ 10 1004.7F
$$

LMZ867-665-643>646-031700-
LAKE MICHIGAN

STATION/POSITION TIME  TEMP    WIND        PRES    WAVE
                       AIR SEA DIR/SP/G            HT/PER
                 (UTC) (F)     (DEG/KT/KT) (MB)    (FT/S)
NORTHPORT PIER   1506   27     160/ 11/ 22 1008.1F
SISTER BAY       1413   29     180/ 17/ 20   N/A
KEWAUNEE LAKESHO 1500   28     190/ 17/ 22   N/A
SHEBOYGAN LAKESH 1500   29     170/ 26/ 28 1008.7F
PORT WASHINGTON  1501   29     170/ 20/ 24 1008.5F
MILWAUKEE LAKESH 1500   28     150/ 23/ 26   N/A
KENOSHA   LAKESH 1500   29     170/ 22/ 31 1007.1F
$$

TC  - TEMPERATURE IN CELSIUS
VSB - VISIBILITY IN STATUTE MILES
WCI - WIND CHILL INDEX
HX  - HEAT INDEX




USA.gov is the U.S. government's official web portal to all federal, state and local government web resources and services.